When you browse on this site, cookies collect data to enhance your experience and personalize the content and advertising you see.
Visit our Privacy Policy to learn more. By continuing to use the site, you agree to this use of cookies and data.
  • în România
  • Lista ţărilor
  • Pe 7 zile
  • Temperatura apei
  • Meteo pe hartă
  • Widget-uri
  • user-avatar
    Intrare

    Meteo pe oră la Santiago del Estero

    Astăzi, 15 Noiembrie, Vineri

    Timp Temperatura Precipitaţii Vânt Presiune Umiditate
    00:00 +27°C° 0 mm 3 m/s 742 mmHg 48%
    01:00 +26°C° 0 mm 3 m/s 741 mmHg 49%
    02:00 +26°C° 0 mm 3 m/s 741 mmHg 52%
    03:00 +25°C° 0 mm 3 m/s 741 mmHg 53%
    04:00 +25°C° 0 mm 3 m/s 741 mmHg 54%
    05:00 +24°C° 0 mm 3 m/s 741 mmHg 54%
    06:00 +26°C° 0 mm 3 m/s 742 mmHg 50%
    07:00 +28°C° 0 mm 4 m/s 742 mmHg 46%
    08:00 +30°C° 0 mm 5 m/s 743 mmHg 43%
    09:00 +33°C° 0 mm 5 m/s 742 mmHg 38%
    10:00 +35°C° 0 mm 6 m/s 742 mmHg 34%
    11:00 +38°C° 0 mm 6 m/s 742 mmHg 29%
    12:00 +39°C° 0 mm 6 m/s 741 mmHg 27%
    13:00 +40°C° 0 mm 6 m/s 740 mmHg 25%
    14:00 +41°C° 0 mm 5 m/s 739 mmHg 22%
    15:00 +41°C° 0 mm 5 m/s 739 mmHg 22%
    16:00 +41°C° 0 mm 5 m/s 738 mmHg 22%
    17:00 +40°C° 0 mm 5 m/s 738 mmHg 21%
    18:00 +37°C° 0 mm 5 m/s 738 mmHg 25%
    19:00 +35°C° 0 mm 5 m/s 739 mmHg 28%
    20:00 +33°C° 0 mm 5 m/s 739 mmHg 31%
    21:00 +32°C° 0 mm 5 m/s 739 mmHg 33%
    22:00 +30°C° 0 mm 5 m/s 740 mmHg 35%
    23:00 +29°C° 0 mm 5 m/s 740 mmHg 37%

    Mâine, 16 Noiembrie, Sâmbătă

    Timp Temperatura Precipitaţii Vânt Presiune Umiditate
    00:00 +28°C° 0 mm 5 m/s 740 mmHg 40%
    01:00 +28°C° 0 mm 5 m/s 739 mmHg 43%
    02:00 +27°C° 0 mm 4 m/s 739 mmHg 45%
    03:00 +26°C° 0 mm 4 m/s 739 mmHg 46%
    04:00 +26°C° 0 mm 5 m/s 739 mmHg 46%
    05:00 +25°C° 0 mm 5 m/s 739 mmHg 47%
    06:00 +27°C° 0 mm 6 m/s 740 mmHg 44%
    07:00 +28°C° 0 mm 7 m/s 740 mmHg 42%
    08:00 +29°C° 0 mm 7 m/s 740 mmHg 39%
    09:00 +32°C° 0 mm 7 m/s 740 mmHg 36%
    10:00 +34°C° 0 mm 7 m/s 740 mmHg 32%
    11:00 +36°C° 0 mm 7 m/s 739 mmHg 29%
    12:00 +39°C° 0 mm 7 m/s 739 mmHg 26%
    13:00 +40°C° 0 mm 6 m/s 738 mmHg 24%
    14:00 +42°C° 0 mm 6 m/s 737 mmHg 21%
    15:00 +41°C° 0 mm 6 m/s 737 mmHg 21%
    16:00 +41°C° 0 mm 6 m/s 736 mmHg 21%
    17:00 +41°C° 0 mm 5 m/s 736 mmHg 20%
    18:00 +39°C° 0 mm 5 m/s 736 mmHg 23%
    19:00 +36°C° 0 mm 5 m/s 737 mmHg 25%
    20:00 +33°C° 0 mm 5 m/s 738 mmHg 28%
    21:00 +33°C° 0 mm 5 m/s 738 mmHg 29%
    22:00 +32°C° 0 mm 6 m/s 738 mmHg 29%
    23:00 +30°C° 0 mm 6 m/s 739 mmHg 30%

    Poimâine, 17 Noiembrie, Duminică

    Timp Temperatura Precipitaţii Vânt Presiune Umiditate
    00:00 +29°C° 0 mm 5 m/s 738 mmHg 31%
    01:00 +28°C° 0 mm 5 m/s 738 mmHg 32%
    02:00 +28°C° 0 mm 4 m/s 738 mmHg 34%
    03:00 +27°C° 0 mm 4 m/s 738 mmHg 35%
    04:00 +26°C° 0 mm 3 m/s 739 mmHg 37%
    05:00 +26°C° 0 mm 3 m/s 739 mmHg 38%
    06:00 +27°C° 0 mm 4 m/s 739 mmHg 37%
    07:00 +28°C° 0 mm 5 m/s 740 mmHg 36%
    08:00 +29°C° 0 mm 6 m/s 740 mmHg 34%
    09:00 +32°C° 0 mm 6 m/s 740 mmHg 30%
    10:00 +34°C° 0 mm 6 m/s 740 mmHg 26%
    11:00 +37°C° 0 mm 5 m/s 740 mmHg 22%
    12:00 +39°C° 0 mm 5 m/s 739 mmHg 21%
    13:00 +40°C° 0 mm 5 m/s 739 mmHg 19%
    14:00 +41°C° 0 mm 5 m/s 738 mmHg 17%
    15:00 +41°C° 0 mm 5 m/s 738 mmHg 18%
    16:00 +41°C° 0 mm 5 m/s 737 mmHg 18%
    17:00 +41°C° 0 mm 5 m/s 737 mmHg 18%
    18:00 +39°C° 0 mm 5 m/s 737 mmHg 20%
    19:00 +35°C° 0 mm 5 m/s 737 mmHg 23%
    20:00 +33°C° 0 mm 5 m/s 738 mmHg 26%
    21:00 +32°C° 0 mm 5 m/s 738 mmHg 27%
    22:00 +30°C° 0 mm 4 m/s 738 mmHg 29%
    23:00 +29°C° 0 mm 3 m/s 738 mmHg 31%

    18 Noiembrie, Luni

    Timp Temperatura Precipitaţii Vânt Presiune Umiditate
    00:00 +28°C° 0 mm 3 m/s 738 mmHg 32%
    01:00 +27°C° 0 mm 3 m/s 738 mmHg 34%
    02:00 +26°C° 0 mm 3 m/s 738 mmHg 35%
    03:00 +26°C° 0 mm 3 m/s 738 mmHg 37%
    04:00 +25°C° 0 mm 3 m/s 738 mmHg 38%
    05:00 +25°C° 0 mm 2 m/s 739 mmHg 39%
    06:00 +27°C° 0 mm 3 m/s 739 mmHg 37%
    07:00 +28°C° 0 mm 4 m/s 740 mmHg 35%
    08:00 +30°C° 0 mm 4 m/s 740 mmHg 33%
    09:00 +33°C° 0 mm 4 m/s 740 mmHg 29%
    10:00 +36°C° 0 mm 4 m/s 740 mmHg 26%
    11:00 +38°C° 0 mm 4 m/s 740 mmHg 22%
    12:00 +40°C° 0 mm 4 m/s 740 mmHg 21%
    13:00 +41°C° 0 mm 4 m/s 739 mmHg 19%
    14:00 +42°C° 0 mm 4 m/s 739 mmHg 18%
    15:00 +42°C° 0 mm 4 m/s 738 mmHg 18%
    16:00 +42°C° 0 mm 4 m/s 738 mmHg 18%
    17:00 +42°C° 0 mm 4 m/s 738 mmHg 18%
    18:00 +40°C° 0 mm 4 m/s 738 mmHg 21%
    19:00 +36°C° 0 mm 5 m/s 739 mmHg 24%
    20:00 +34°C° 0 mm 5 m/s 739 mmHg 27%
    21:00 +33°C° 0 mm 5 m/s 739 mmHg 30%
    22:00 +32°C° 0 mm 4 m/s 740 mmHg 32%
    23:00 +29°C° 0 mm 4 m/s 740 mmHg 34%

    19 Noiembrie, Marţi

    Timp Temperatura Precipitaţii Vânt Presiune Umiditate
    00:00 +29°C° 0 mm 3 m/s 740 mmHg 37%
    01:00 +28°C° 0 mm 3 m/s 740 mmHg 39%
    02:00 +27°C° 0 mm 3 m/s 740 mmHg 42%
    03:00 +26°C° 0 mm 2 m/s 740 mmHg 43%
    04:00 +26°C° 0 mm 2 m/s 740 mmHg 45%
    05:00 +25°C° 0 mm 2 m/s 740 mmHg 47%
    06:00 +27°C° 0 mm 2 m/s 741 mmHg 44%
    07:00 +29°C° 0 mm 3 m/s 741 mmHg 41%
    08:00 +32°C° 0 mm 4 m/s 742 mmHg 39%
    09:00 +34°C° 0 mm 4 m/s 741 mmHg 34%
    10:00 +37°C° 0 mm 5 m/s 741 mmHg 30%
    11:00 +40°C° 0 mm 5 m/s 741 mmHg 25%
    12:00 +42°C° 0 mm 5 m/s 740 mmHg 23%
    13:00 +43°C° 0 mm 5 m/s 739 mmHg 21%
    14:00 +45°C° 0 mm 5 m/s 738 mmHg 18%
    15:00 +45°C° 0 mm 5 m/s 737 mmHg 18%
    16:00 +45°C° 0 mm 5 m/s 736 mmHg 17%
    17:00 +45°C° 0 mm 6 m/s 736 mmHg 17%
    18:00 +42°C° 0 mm 5 m/s 736 mmHg 20%
    19:00 +39°C° 0 mm 5 m/s 736 mmHg 23%
    20:00 +36°C° 0 mm 5 m/s 736 mmHg 26%
    21:00 +35°C° 0 mm 5 m/s 737 mmHg 28%
    22:00 +34°C° 0 mm 5 m/s 737 mmHg 29%
    23:00 +33°C° 0 mm 5 m/s 738 mmHg 31%

    20 Noiembrie, Miercuri

    Timp Temperatura Precipitaţii Vânt Presiune Umiditate
    00:00 +32°C° 0 mm 4 m/s 738 mmHg 33%
    01:00 +30°C° 0 mm 4 m/s 738 mmHg 34%
    02:00 +30°C° 0 mm 3 m/s 738 mmHg 36%
    03:00 +29°C° 0 mm 3 m/s 738 mmHg 37%
    04:00 +28°C° 0 mm 3 m/s 738 mmHg 39%
    05:00 +28°C° 0 mm 3 m/s 738 mmHg 40%
    06:00 +30°C° 0 mm 5 m/s 738 mmHg 37%
    07:00 +33°C° 0 mm 6 m/s 738 mmHg 33%
    08:00 +35°C° 0 mm 8 m/s 738 mmHg 30%
    09:00 +38°C° 0 mm 8 m/s 738 mmHg 27%
    10:00 +40°C° 0 mm 8 m/s 737 mmHg 23%
    11:00 +43°C° 0 mm 8 m/s 737 mmHg 20%
    12:00 +45°C° 0 mm 7 m/s 736 mmHg 18%
    13:00 +46°C° 0 mm 7 m/s 735 mmHg 16%
    14:00 +49°C° 0 mm 7 m/s 734 mmHg 13%
    15:00 +48°C° 0 mm 6 m/s 734 mmHg 13%
    16:00 +47°C° 0 mm 6 m/s 733 mmHg 13%
    17:00 +47°C° 0 mm 6 m/s 732 mmHg 13%
    18:00 +45°C° 0 mm 5 m/s 733 mmHg 15%
    19:00 +41°C° 0 mm 5 m/s 733 mmHg 17%
    20:00 +38°C° 0 mm 4 m/s 734 mmHg 19%
    21:00 +37°C° 0 mm 4 m/s 734 mmHg 21%
    22:00 +35°C° 0 mm 4 m/s 734 mmHg 24%
    23:00 +34°C° 0 mm 3 m/s 734 mmHg 26%
    Arată mai mult